Hourly Weather Roundup
Issued by NWS Central Illinois

Home | Current Version | Previous Version | Text Only | Print | Product List | Glossary On
Versions: 1 2 3 4 5 6 7 8 9 10 11 12 13 14 15 16 17 18 19 20 21 22 23 24 25 26 27 28 29 30 31 32 33 34 35 36 37 38 39 40 41 42 43 44 45 46 47 48 49 50
000
NZUS43 KILX 061710
HWRILX

AREA WEATHER ROUNDUP
NATIONAL WEATHER SERVICE, LINCOLN IL
1200 PM CDT MON JUL 06 2015


CITY           SKY/WX    TMP DP  RH WIND       PRES   REMARKS
BLOOMINGTON    PTSUNNY   83  75  76 S20       29.99F HX  90
CHAMPAIGN      PTSUNNY   83  72  69 SW13      30.02F HX  88
DANVILLE       MOSUNNY   81  71  73 S12       30.01F HAZE    HX  85
DECATUR        PTSUNNY   84  73  69 S14       30.00F HX  90
EFFINGHAM      MOSUNNY   84  69  61 S10       30.04F HX  88
FLORA          SUNNY     80  72  76 SW8       30.06R HX  84
GALESBURG      CLOUDY    78  72  82 S9        29.95F HX  80
JACKSONVILLE   PTSUNNY   87  76  70 SW9       29.96F HX  97
LACON          PTSUNNY   82  73  72 SW12      29.93F HX  87
LAWRENCEVILLE  MOSUNNY   85  72  65 SW13      30.05F HX  91
LITCHFIELD     MOSUNNY   82  73  73 S12       30.00F HX  88
$$


CITY           SKY/WX    TMP DP  RH WIND       PRES   REMARKS
LINCOLN        PTSUNNY   85  74  70 S10       29.97F HX  92
MACOMB         CLOUDY    80  73  80 SW7       29.97F HX  84
MATTOON        MOSUNNY   82  72  71 S14       30.03S HX  87
MT CARMEL AP   MOSUNNY   86  70  58 S12       30.04F HX  90
OLNEY-NOBLE AP CLOUDY    81  72  74 S6        30.05S HX  84
PARIS          SUNNY     83  72  69 SW10      30.04F HX  88
PEORIA         PTSUNNY   85  74  69 S12       29.95F HX  92
PONTIAC        PTSUNNY   84  76  75 S15       29.97F HX  92
RANTOUL        PTSUNNY   84  72  67 S10       30.01F HX  90
ROBINSON       MOSUNNY   84  71  64 SW9       30.05F HX  88
SPRINGFIELD    MOSUNNY   86  75  69 S9G16     29.98F HX  95
TAYLORVILLE    PTSUNNY   81  73  78 S9        30.00F HX  85
$$

...REGIONAL REPORTS...


CITY           SKY/WX    TMP DP  RH WIND       PRES   REMARKS
CHICAGO O`HARE CLOUDY    82  69  64 S15G25    29.94F HX  85
KANKAKEE       PTSUNNY   83  72  68 S13G20    30.00F HX  88
MOLINE         CLOUDY    78  69  73 S6        29.92F HX  80
MOUNT STERLING NOT AVBL
MOUNT VERNON   CLOUDY    81  72  74 SW12      30.06F HX  84
PITTSFIELD     CLOUDY    85  74  70 SW8       29.97F HX  92
QUINCY         CLOUDY    81  73  76 S10       29.94F HX  86
ROCKFORD       LGT RAIN  75  70  84 NW13      29.96R
$$


CITY           SKY/WX    TMP DP  RH WIND       PRES   REMARKS
BURLINGTON     CLOUDY    79  74  84 S8        29.93F HX  82
CEDAR RAPIDS   CLOUDY    73  73 100 S14       29.88S
DES MOINES     LGT RAIN  77  73  87 SW10      29.90R FOG
KIRKSVILLE     CLOUDY    83  73  72 SW8       29.94S HX  89
OTTUMWA        CLOUDY    77  72  84 S7        29.88F
ST LOUIS       PTSUNNY   89  73  59 SW9       29.99F HX  97
$$


CITY           SKY/WX    TMP DP  RH WIND       PRES   REMARKS
TERRE HAUTE    SUNNY     83  70  64 SW7       30.05F HX  87
EVANSVILLE     MOSUNNY   84  72  67 SW14      30.07F HX  89
INDIANAPOLIS   MOSUNNY   82  67  60 SW10      30.05R HX  84
LAFAYETTE      MOSUNNY   81  68  64 SW7       30.03F HX  84
MADISON        RAIN      73  69  87 SW8       29.92S FOG
MILWAUKEE      CLOUDY    82  68  62 S16G24    29.92F HX  85
$$





USA.gov is the U.S. government's official web portal to all federal, state and local government web resources and services.